weather.gov     
National Weather Service

Regional Weather Roundup
NWS Homepage
This page is being discontinued on March 12, 2014.
The same data is available at this site. Please update your bookmarks.
Thank you, and we apologize for the inconvenience.
Please send an email to SR-SRH.Webmaster@noaa.gov with any concerns.


Current Version
Previous Version:    01  02  03  04  05  06  07  08  09  10  11  12  13  14  15  16  17  18  19  20  21  22  23  24  25  26  27  28  29  30  
   31  32  33  34  35  36  37  38  39  40  41  42  43  44  45  46  47  48  49  50  51  52  53  54  55  56  57  58  59  60  
[Printable]
129
ASUS43 KJKL 261619
RWRJKL

EAST KENTUCKY HOURLY WEATHER ROUNDUP
NATIONAL WEATHER SERVICE JACKSON KY
1100 AM EST MON JAN 26 2015

NOTE: "FAIR" INDICATES FEW OR NO CLOUDS BELOW 12,000 FEET WITH
NO SIGNIFICANT WEATHER AND/OR OBSTRUCTIONS TO VISIBILITY.

* THESE REPORTS ARE NOT UNDER NWS QUALITY CONTROL AND MAY NOT
  REPORT WEATHER SUCH AS PRECIPITATION AND FOG.

KYZ079-080-083-085-087-088-110-112-115-119-120-261700
...EASTERN KENTUCKY...

CITY           SKY/WX    TMP DP  RH WIND       PRES   REMARKS
JACKSON        CLOUDY    25  23  92 MISG      29.83R FOG
LONDON         CLOUDY    28  22  78 W12       29.88R WCI  18
SOMERSET*      CLOUDY    27  23  86 NW7       29.94R WCI  19
MONTICELLO*    CLOUDY    28  25  89 W13       29.96R WCI  17
MIDDLESBORO*   CLOUDY    32  26  79 N3        29.85R
HARLAN APT*    CLOUDY    30  28  93 W13G18    29.82R WCI  20
HAZARD APT*    LGT SNOW  28  27  93 W12G21    29.84  WCI  18
BLACK MTN*       N/A     25  25 100 N7          N/A  WCI  17
PIKEVILLE APT* LGT SNOW  28  28 100 W7        29.79R VSB 3/4 WCI  21
BIG SANDY*     LGT SNOW  28  26  91 W12G21    29.81R WCI  18
MOREHEAD APT*  CLOUDY    23  19  86 NW10G18   29.90R WCI  12
ASHLAND*       CLOUDY   N/A N/A N/A NW12      29.83R
$$

KYZ035-036-041-042-044-050-067-078-099-261700
...CENTRAL KENTUCKY...

CITY           SKY/WX    TMP DP  RH WIND       PRES   REMARKS
MT STERLING*   CLOUDY    23  21  93 NW8       29.91R WCI  14
FLEMING/MASON* CLOUDY    22  19  85 NW9       29.90R WCI  12
DANVILLE*      CLOUDY    27  23  86 N10       29.94R WCI  17
RICHMOND*      CLOUDY    25  21  86 NW12G17   29.91R WCI  14
LEXINGTON      CLOUDY    24  20  84 NW12      29.92R WCI  13
FRANKFORT      CLOUDY    25  19  78 NW9       29.93R WCI  15
$$

KYZ091>093-OHZ055-061-077-WVZ005-015-034-035-042-261700
...SOUTHERN OHIO/WEST VIRGINIA...

CITY           SKY/WX    TMP DP  RH WIND       PRES   REMARKS
COVINGTON      PTSUNNY   22  15  75 NW15      29.93R WCI   9
COLUMBUS       CLOUDY    21  16  81 N13       29.84R WCI   9
DAYTON         PTSUNNY   15   8  73 N16       29.92R WCI  -1
WILMINGTON     MOSUNNY   20  13  74 NW16      29.88R WCI   6
HUNTINGTON     LGT SNOW  27  25  92 NW8       29.81R FOG     WCI  19
CHARLESTON     LGTSLEET  33  32  96 W8        29.74R VSB 1   WCI  26
PINEVILLE*     MIX PCPN  42  42 100 MISG      29.72R
BECKLEY        LGT SNOW  36  33  89 SW3       29.64R FOG
BLUEFIELD      LGT RAIN  39  33  79 W5        29.65R
$$

VAZ002-007-008-TNZ017-027-036-066-071-261700
...SOUTHWEST VIRGINIA/EAST TENNESSEE...

CITY           SKY/WX    TMP DP  RH WIND       PRES   REMARKS
WISE*          LGT SNOW  32  32 100 NW13      29.71R WCI  22
JONESVILLE*    CLOUDY    32  28  86 W12       29.81R WCI  23
ABINGDON*      DRIZZLE   39  38  94 W8        29.69S WCI  34
BRISTOL        CLOUDY    40  37  89 W9        29.73R WCI  34
KNOXVILLE      CLOUDY    37  30  75 W12       29.85R WCI  29
OAK RIDGE      CLOUDY    38  30  73 W5        29.86R WCI  34
CROSSVILLE     CLOUDY    29  27  92 NW12      29.87R FOG     WCI  19
NASHVILLE      CLOUDY    33  28  81 NW13G21   30.03R WCI  24
$$

...KEY TO REMARKS...
VSB - VISIBILITY IN MILES
WCI - WIND CHILL INDEX
HX  - HEAT INDEX

$$




U.S. Dept. of Commerce
NOAA National Weather Service
1325 East West Highway
Silver Spring, MD 20910
E-mail: w-nws.webmaster@noaa.gov
Page last modified: May 16, 2007
NATIONAL WEATHER SERVICE: for Safety, for Work, for Fun - FOR LIFE